• In United Kingdom
  • List of Countries
  • For 7 days
  • Water Temperature
  • Satellite Maps
  • Weather Map
  • Weather Widgets
  • user-avatar
    Login

    Hourly Weather Kinshasa

    Today, 20 September, Wednesday

    Time Temperature Precipitation Wind Pressure Humidity
    00:00 +20°C° 0 mm 0 mps 709 mmHg 98%
    01:00 +20°C° 0 mm 0 mps 708 mmHg 98%
    02:00 +20°C° 0 mm 0 mps 708 mmHg 98%
    03:00 +20°C° 0 mm 0 mps 708 mmHg 98%
    04:00 +19°C° 0 mm 0 mps 707 mmHg 98%
    05:00 +22°C° 0 mm 1 mps 708 mmHg 97%
    06:00 +22°C° 0 mm 1 mps 708 mmHg 97%
    07:00 +23°C° 0 mm 1 mps 708 mmHg 96%
    08:00 +25°C° 0 mm 1 mps 709 mmHg 86%
    09:00 +28°C° 0 mm 1 mps 709 mmHg 77%
    10:00 +30°C° 0 mm 1 mps 709 mmHg 67%
    11:00 +32°C° 0 mm 1 mps 709 mmHg 62%
    12:00 +33°C° 0 mm 1 mps 708 mmHg 58%
    13:00 +32°C° 0 mm 0 mps 708 mmHg 54%
    14:00 +31°C° 0.4 mm 0 mps 707 mmHg 58%
    15:00 +30°C° 0.4 mm 0 mps 707 mmHg 62%
    16:00 +31°C° 0.4 mm 1 mps 706 mmHg 66%
    17:00 +29°C° 0.6 mm 1 mps 706 mmHg 73%
    18:00 +27°C° 0.6 mm 1 mps 706 mmHg 80%
    19:00 +25°C° 0.6 mm 1 mps 707 mmHg 88%
    20:00 +24°C° 0.2 mm 1 mps 707 mmHg 89%
    21:00 +22°C° 0.2 mm 0 mps 707 mmHg 90%
    22:00 +21°C° 0.2 mm 0 mps 708 mmHg 92%
    23:00 +21°C° 0 mm 0 mps 708 mmHg 92%

    Tomorrow, 21 September, Thursday

    Time Temperature Precipitation Wind Pressure Humidity
    00:00 +21°C° 0 mm 0 mps 707 mmHg 93%
    01:00 +21°C° 0 mm 0 mps 707 mmHg 93%
    02:00 +21°C° 0 mm 0 mps 707 mmHg 94%
    03:00 +21°C° 0 mm 0 mps 707 mmHg 94%
    04:00 +20°C° 0 mm 0 mps 707 mmHg 95%
    05:00 +21°C° 0 mm 0 mps 707 mmHg 94%
    06:00 +21°C° 0 mm 0 mps 708 mmHg 94%
    07:00 +22°C° 0 mm 0 mps 709 mmHg 93%
    08:00 +24°C° 0.1 mm 0 mps 709 mmHg 84%
    09:00 +29°C° 0.1 mm 1 mps 709 mmHg 76%
    10:00 +31°C° 0.1 mm 1 mps 710 mmHg 67%
    11:00 +32°C° 0.6 mm 1 mps 709 mmHg 64%
    12:00 +32°C° 0.6 mm 1 mps 708 mmHg 62%
    13:00 +33°C° 0.6 mm 1 mps 707 mmHg 60%
    14:00 +33°C° 0.4 mm 1 mps 707 mmHg 61%
    15:00 +30°C° 0.4 mm 0 mps 706 mmHg 62%
    16:00 +30°C° 0.4 mm 0 mps 705 mmHg 63%
    17:00 +28°C° 0.4 mm 0 mps 705 mmHg 69%
    18:00 +26°C° 0.4 mm 0 mps 706 mmHg 75%
    19:00 +24°C° 0.4 mm 0 mps 706 mmHg 81%
    20:00 +23°C° 0.3 mm 0 mps 706 mmHg 84%
    21:00 +23°C° 0.3 mm 0 mps 707 mmHg 87%
    22:00 +22°C° 0.3 mm 0 mps 707 mmHg 89%
    23:00 +24°C° 1.2 mm 1 mps 707 mmHg 92%

    Day after tomorrow, 22 September, Friday

    Time Temperature Precipitation Wind Pressure Humidity
    00:00 +23°C° 1.2 mm 1 mps 707 mmHg 94%
    01:00 +23°C° 1.2 mm 1 mps 706 mmHg 96%
    02:00 +23°C° 1.1 mm 1 mps 706 mmHg 97%
    03:00 +23°C° 1.1 mm 1 mps 706 mmHg 97%
    04:00 +23°C° 1.1 mm 1 mps 706 mmHg 98%
    05:00 +23°C° 0 mm 1 mps 707 mmHg 98%
    06:00 +23°C° 0 mm 1 mps 708 mmHg 97%
    07:00 +23°C° 0 mm 1 mps 708 mmHg 97%
    08:00 +24°C° 0.3 mm 2 mps 709 mmHg 95%
    09:00 +25°C° 0.3 mm 2 mps 709 mmHg 92%
    10:00 +25°C° 0.3 mm 2 mps 710 mmHg 89%
    11:00 +26°C° 0.3 mm 2 mps 709 mmHg 84%
    12:00 +28°C° 0.3 mm 2 mps 708 mmHg 80%
    13:00 +29°C° 0.3 mm 2 mps 707 mmHg 75%
    14:00 +29°C° 1.1 mm 1 mps 707 mmHg 79%
    15:00 +28°C° 1.1 mm 1 mps 706 mmHg 83%
    16:00 +26°C° 1.1 mm 0 mps 706 mmHg 86%
    17:00 +25°C° 0.9 mm 0 mps 706 mmHg 89%
    18:00 +23°C° 0.9 mm 0 mps 707 mmHg 92%
    19:00 +22°C° 0.9 mm 0 mps 707 mmHg 95%
    20:00 +22°C° 0.3 mm 0 mps 708 mmHg 95%
    21:00 +23°C° 0.3 mm 1 mps 708 mmHg 95%
    22:00 +23°C° 0.3 mm 1 mps 708 mmHg 96%
    23:00 +22°C° 0 mm 1 mps 708 mmHg 96%

    23 September, Saturday

    Time Temperature Precipitation Wind Pressure Humidity
    00:00 +22°C° 0 mm 1 mps 707 mmHg 97%
    01:00 +22°C° 0 mm 1 mps 707 mmHg 97%
    02:00 +22°C° 0 mm 1 mps 707 mmHg 97%
    03:00 +22°C° 0 mm 1 mps 707 mmHg 98%
    04:00 +22°C° 0 mm 1 mps 707 mmHg 98%
    05:00 +22°C° 0 mm 1 mps 708 mmHg 97%
    06:00 +22°C° 0 mm 1 mps 708 mmHg 97%
    07:00 +23°C° 0 mm 1 mps 709 mmHg 96%
    08:00 +24°C° 0.1 mm 2 mps 709 mmHg 90%
    09:00 +26°C° 0.1 mm 2 mps 710 mmHg 84%
    10:00 +27°C° 0.1 mm 2 mps 710 mmHg 78%
    11:00 +28°C° 1.2 mm 2 mps 709 mmHg 78%
    12:00 +28°C° 1.2 mm 2 mps 708 mmHg 78%
    13:00 +29°C° 1.2 mm 2 mps 707 mmHg 79%
    14:00 +29°C° 1 mm 2 mps 707 mmHg 81%
    15:00 +28°C° 1 mm 2 mps 707 mmHg 82%
    16:00 +28°C° 1 mm 1 mps 706 mmHg 84%
    17:00 +27°C° 0.8 mm 1 mps 707 mmHg 88%
    18:00 +25°C° 0.8 mm 1 mps 707 mmHg 92%
    19:00 +24°C° 0.8 mm 1 mps 708 mmHg 95%
    20:00 +23°C° 0.1 mm 1 mps 708 mmHg 96%
    21:00 +23°C° 0.1 mm 1 mps 708 mmHg 96%
    22:00 +23°C° 0.1 mm 1 mps 709 mmHg 96%
    23:00 +22°C° 0 mm 1 mps 708 mmHg 97%

    24 September, Sunday

    Time Temperature Precipitation Wind Pressure Humidity
    00:00 +22°C° 0 mm 1 mps 708 mmHg 97%
    01:00 +22°C° 0 mm 1 mps 707 mmHg 98%
    02:00 +21°C° 0 mm 1 mps 707 mmHg 98%
    03:00 +21°C° 0 mm 1 mps 707 mmHg 98%
    04:00 +21°C° 0 mm 1 mps 707 mmHg 98%
    05:00 +21°C° 0 mm 1 mps 707 mmHg 98%
    06:00 +22°C° 0 mm 1 mps 708 mmHg 97%
    07:00 +22°C° 0 mm 1 mps 709 mmHg 97%
    08:00 +24°C° 0 mm 1 mps 709 mmHg 88%
    09:00 +26°C° 0 mm 1 mps 710 mmHg 80%
    10:00 +28°C° 0 mm 1 mps 710 mmHg 71%
    11:00 +29°C° 0.3 mm 1 mps 709 mmHg 70%
    12:00 +30°C° 0.3 mm 1 mps 708 mmHg 69%
    13:00 +30°C° 0.3 mm 1 mps 707 mmHg 67%
    14:00 +30°C° 0.8 mm 1 mps 707 mmHg 73%
    15:00 +29°C° 0.8 mm 1 mps 707 mmHg 79%
    16:00 +29°C° 0.8 mm 1 mps 706 mmHg 84%
    17:00 +27°C° 0.7 mm 1 mps 707 mmHg 88%
    18:00 +26°C° 0.7 mm 1 mps 707 mmHg 92%
    19:00 +24°C° 0.7 mm 1 mps 707 mmHg 96%
    20:00 +24°C° 0.8 mm 1 mps 707 mmHg 96%
    21:00 +23°C° 0.8 mm 1 mps 708 mmHg 96%
    22:00 +23°C° 0.8 mm 1 mps 708 mmHg 96%
    23:00 +23°C° 0 mm 1 mps 707 mmHg 96%

    25 September, Monday

    Time Temperature Precipitation Wind Pressure Humidity
    00:00 +23°C° 0 mm 1 mps 707 mmHg 96%
    01:00 +22°C° 0 mm 1 mps 706 mmHg 97%
    02:00 +22°C° 0.4 mm 1 mps 706 mmHg 97%
    03:00 +22°C° 0.4 mm 1 mps 706 mmHg 98%
    04:00 +22°C° 0.4 mm 1 mps 706 mmHg 98%
    05:00 +22°C° 0.1 mm 1 mps 707 mmHg 97%
    06:00 +22°C° 0.1 mm 1 mps 707 mmHg 97%
    07:00 +23°C° 0.1 mm 1 mps 708 mmHg 96%
    08:00 +25°C° 0.1 mm 1 mps 708 mmHg 88%
    09:00 +27°C° 0.1 mm 1 mps 708 mmHg 81%
    10:00 +28°C° 0.1 mm 1 mps 709 mmHg 74%
    11:00 +29°C° 0.9 mm 1 mps 708 mmHg 75%
    12:00 +29°C° 0.9 mm 1 mps 707 mmHg 76%
    13:00 +29°C° 0.9 mm 1 mps 706 mmHg 78%
    14:00 +29°C° 0.6 mm 1 mps 706 mmHg 77%
    15:00 +29°C° 0.6 mm 1 mps 705 mmHg 76%
    16:00 +27°C° 0.6 mm 0 mps 705 mmHg 75%
    17:00 +25°C° 0.2 mm 0 mps 705 mmHg 81%
    18:00 +26°C° 0.2 mm 1 mps 706 mmHg 86%
    19:00 +24°C° 0.2 mm 1 mps 706 mmHg 92%
    20:00 +22°C° 0 mm 0 mps 706 mmHg 93%
    21:00 +21°C° 0 mm 0 mps 706 mmHg 94%
    22:00 +21°C° 0 mm 0 mps 706 mmHg 95%
    23:00 +20°C° 0 mm 0 mps 706 mmHg 96%
    Show more